TSO161 UHHH-UNKL

Flight info

Callsign TSO161
Flight time N/A
Altitude 40000
Route IVADA2U IVADA A946 TORMA N992 GU G363 BRT B151 KOTIB W174 TISBU A311 LALOM LALOM2S
Aircraft B772/H-SDE2E3FGHIJ5LORVWXY/LB1D1

Departure

Time 2026-05-08 14:46
Airport Khabarovsk Novy Airport (UHHH)

Arrival

Time N/A
Airport Krasnoyarsk International Airport (UNKL)
Time Latitude Longitude Altitude Speed Heading
2026-05-08 14:16 48.52404 135.17383 257 ft 0 kts 312°
2026-05-08 14:38 48.52420 135.17355 257 ft 8 kts 314°
2026-05-08 14:38 48.52442 135.17290 257 ft 0 kts 284°
2026-05-08 14:39 48.52443 135.17285 257 ft 1 kts 284°
2026-05-08 14:39 48.52432 135.17239 257 ft 8 kts 239°
2026-05-08 14:39 48.52367 135.17127 257 ft 20 kts 224°
2026-05-08 14:39 48.52232 135.16927 257 ft 26 kts 225°
2026-05-08 14:40 48.52113 135.16763 257 ft 24 kts 206°
2026-05-08 14:40 48.51922 135.16672 257 ft 26 kts 196°
2026-05-08 14:40 48.51762 135.16809 257 ft 34 kts 131°
2026-05-08 14:40 48.51599 135.17081 257 ft 10 kts 131°
2026-05-08 14:41 48.51597 135.17084 257 ft 0 kts 131°
2026-05-08 14:42 48.51597 135.17085 257 ft 0 kts 131°
2026-05-08 14:42 48.51597 135.17084 257 ft 0 kts 131°
2026-05-08 14:43 48.51597 135.17085 257 ft 0 kts 131°
2026-05-08 14:43 48.51597 135.17084 257 ft 0 kts 131°
2026-05-08 14:43 48.51595 135.17087 257 ft 2 kts 131°
2026-05-08 14:44 48.51561 135.17145 257 ft 12 kts 131°
2026-05-08 14:44 48.51502 135.17281 257 ft 19 kts 86°
2026-05-08 14:44 48.51543 135.17378 257 ft 0 kts 43°
2026-05-08 14:45 48.51545 135.17381 257 ft 3 kts 43°
2026-05-08 14:45 48.51704 135.17598 257 ft 73 kts 41°
2026-05-08 14:45 48.52300 135.18401 257 ft 155 kts 41°
2026-05-08 14:45 48.53257 135.19658 595 ft 196 kts 38°
2026-05-08 14:46 48.54286 135.20991 1628 ft 196 kts 44°
2026-05-08 14:46 48.55243 135.22478 1998 ft 211 kts 39°
2026-05-08 14:46 48.56559 135.23573 2311 ft 222 kts 12°
2026-05-08 14:46 48.57980 135.23621 3279 ft 201 kts 347°
2026-05-08 14:47 48.59166 135.22749 4039 ft 191 kts 319°
2026-05-08 14:47 48.60112 135.21327 4606 ft 193 kts 314°
2026-05-08 14:47 48.61010 135.19882 5221 ft 191 kts 313°
2026-05-08 14:47 48.61912 135.18443 5814 ft 191 kts 313°
2026-05-08 14:48 48.62851 135.16962 6143 ft 210 kts 313°
2026-05-08 14:48 48.63919 135.15279 6473 ft 230 kts 313°
2026-05-08 14:48 48.65068 135.13496 6930 ft 244 kts 314°
2026-05-08 14:48 48.66310 135.11595 7223 ft 264 kts 313°
2026-05-08 14:49 48.67565 135.09607 7907 ft 266 kts 313°
2026-05-08 14:49 48.68874 135.07597 8566 ft 270 kts 314°
2026-05-08 14:49 48.70198 135.05582 9232 ft 273 kts 313°
2026-05-08 14:49 48.71535 135.03545 9865 ft 277 kts 313°
2026-05-08 14:50 48.72899 135.01462 10287 ft 288 kts 313°
2026-05-08 14:50 48.74364 134.99223 10561 ft 304 kts 313°
2026-05-08 14:50 48.75883 134.96901 10804 ft 319 kts 313°
2026-05-08 14:50 48.77479 134.94457 11021 ft 334 kts 313°
2026-05-08 14:51 48.79130 134.91928 11214 ft 347 kts 313°
2026-05-08 14:51 48.80847 134.89294 11562 ft 355 kts 313°
2026-05-08 14:51 48.82606 134.86598 12057 ft 359 kts 313°
2026-05-08 14:51 48.84346 134.83925 12565 ft 361 kts 313°
2026-05-08 14:52 48.86113 134.81210 13087 ft 363 kts 313°
2026-05-08 14:52 48.89689 134.75707 14120 ft 368 kts 313°
2026-05-08 14:52 48.91472 134.72958 14629 ft 370 kts 313°
2026-05-08 14:53 48.93299 134.70138 15144 ft 373 kts 313°
2026-05-08 14:53 48.95099 134.67358 15644 ft 375 kts 313°
2026-05-08 14:53 48.96933 134.64520 16149 ft 378 kts 313°
2026-05-08 14:53 48.98782 134.61658 16641 ft 380 kts 312°
2026-05-08 14:54 49.00639 134.58778 17126 ft 383 kts 312°
2026-05-08 14:54 49.02496 134.55898 17605 ft 386 kts 312°
2026-05-08 14:54 49.04384 134.52966 18088 ft 388 kts 312°
2026-05-08 14:54 49.06285 134.50009 18565 ft 391 kts 312°
2026-05-08 14:55 49.08132 134.47006 19024 ft 392 kts 307°
2026-05-08 14:55 49.09712 134.43640 19466 ft 393 kts 302°
2026-05-08 14:55 49.11158 134.40308 19909 ft 396 kts 301°
2026-05-08 14:55 49.12080 134.38173 20190 ft 397 kts 301°